period_start,C,m1,H,J0,J1,J2,J3,J4,J5,JA,JB,JC,JD,JJ,JK,JN,#
2017-01-19 00:02:13,0.15,2.36,0.00,17.86,22.03,25.46,14.91,49.58,1023.95,2048.72,2763.60,2537.51,2842.08,599.81,610.71,43.85,0000 0000 0000 0000 000000
2017-01-19 00:07:14,0.12,2.37,0.00,17.85,22.02,25.46,14.89,49.67,1023.94,2048.89,2761.76,2536.20,2840.55,599.74,610.69,43.90,0000 0000 0000 0000 000000
2017-01-19 00:12:16,0.13,2.37,0.00,17.85,22.01,25.45,14.94,49.61,1023.69,2048.96,2759.90,2534.79,2838.85,600.01,610.82,43.95,0000 0000 0000 0000 000000
2017-01-19 00:17:17,0.12,2.38,0.00,17.85,21.99,25.47,14.90,49.76,1023.46,2048.94,2757.82,2533.35,2837.10,599.99,610.76,44.01,0000 0000 0000 0000 000000
2017-01-19 00:22:18,0.13,2.39,0.00,17.83,21.99,25.43,14.91,49.93,1023.45,2048.97,2755.95,2531.83,2835.44,600.05,610.74,44.06,0000 0000 0000 0000 000000
2017-01-19 00:27:19,0.13,2.39,0.00,17.81,21.97,25.40,14.98,49.87,1023.31,2048.98,2753.87,2530.44,2833.73,600.13,610.79,44.11,0000 0000 0000 0000 000000
2017-01-19 00:32:21,0.13,2.40,0.00,17.81,21.97,25.34,14.91,49.79,1023.44,2048.99,2751.88,2528.88,2831.93,600.15,610.84,44.16,0000 0000 0000 0000 000000
2017-01-19 00:37:22,0.13,2.41,0.00,17.79,21.94,25.43,14.98,49.77,1023.45,2048.99,2749.83,2527.30,2830.09,600.15,610.80,44.21,0000 0000 0000 0000 000000
2017-01-19 00:42:23,0.14,2.41,0.00,17.79,21.94,25.44,14.96,49.83,1023.45,2048.98,2747.63,2525.61,2828.25,600.01,610.76,44.26,0000 0000 0000 0000 000000
2017-01-19 00:47:25,0.16,2.42,0.00,17.79,21.92,25.35,14.86,50.33,1023.45,2048.99,2745.44,2523.75,2826.18,599.88,610.60,44.31,0000 0000 0000 0000 000000
2017-01-19 00:52:26,0.17,2.43,0.00,17.77,21.92,25.33,14.99,50.10,1023.42,2048.99,2742.96,2521.74,2823.80,599.90,610.75,44.36,0000 0000 0000 0000 000000
2017-01-19 00:57:27,0.13,2.44,0.00,17.77,21.90,25.33,14.97,50.03,1023.07,2048.99,2740.78,2520.20,2822.00,600.22,610.84,44.41,0000 0000 0000 0000 000000
2017-01-19 01:02:28,0.15,2.44,0.00,17.77,21.89,25.28,14.86,49.89,1023.01,2048.99,2738.39,2518.40,2820.01,599.73,610.31,44.46,0000 0000 0000 0000 000000
2017-01-19 01:07:30,0.14,2.45,0.00,17.77,21.88,25.29,14.98,49.88,1023.00,2048.99,2736.29,2516.77,2818.03,600.13,610.80,44.51,0000 0000 0000 0000 000000
2017-01-19 01:12:31,0.13,2.46,0.00,17.79,21.87,25.28,14.94,49.90,1023.13,2048.99,2734.25,2515.30,2816.30,600.19,610.81,44.56,0000 0000 0000 0000 000000
2017-01-19 01:17:32,0.15,2.47,0.00,17.80,21.86,25.25,14.91,49.81,1023.29,2048.99,2731.99,2513.65,2814.48,600.17,610.76,44.61,0000 0000 0000 0000 000000
2017-01-19 01:22:34,0.17,2.47,0.00,17.80,21.85,25.26,14.96,49.85,1023.35,2049.01,2729.40,2511.77,2812.26,600.05,610.70,44.66,0000 0000 0000 0000 000000
2017-01-19 01:27:35,0.16,2.48,0.00,17.79,21.84,25.27,14.99,49.84,1023.17,2049.00,2727.01,2509.85,2810.07,600.50,611.13,44.71,0000 0000 0000 0000 000000
2017-01-19 01:32:36,0.16,2.49,0.00,17.79,21.84,25.20,14.94,49.90,1023.03,2049.02,2724.78,2508.09,2807.96,600.28,610.85,44.76,0000 0000 0000 0000 000000
2017-01-19 01:37:37,0.14,2.50,0.00,17.78,21.83,25.25,14.94,50.23,1022.95,2049.07,2722.67,2506.36,2806.00,600.05,610.49,44.81,0000 0000 0000 0000 000000
2017-01-19 01:42:38,0.15,2.51,0.00,17.78,21.82,25.23,14.95,50.03,1022.65,2049.05,2720.46,2504.62,2803.99,600.05,610.35,44.86,0000 0000 0000 0000 000000
2017-01-19 01:47:40,0.16,2.51,0.00,17.77,21.82,25.28,14.94,49.76,1022.60,2049.11,2718.13,2502.86,2801.98,600.11,610.44,44.91,0000 0000 0000 0000 000000
2017-01-19 01:52:41,0.19,2.52,0.00,17.77,21.82,25.21,14.94,49.79,1022.50,2049.22,2715.68,2501.05,2799.86,599.99,610.22,44.97,0000 0000 0000 0000 000000
2017-01-19 01:57:42,0.18,2.53,0.00,17.78,21.81,25.29,14.94,50.04,1022.49,2049.22,2712.89,2498.84,2797.42,600.12,610.27,45.02,0000 0000 0000 0000 000000
2017-01-19 02:02:43,0.22,2.54,0.00,17.77,21.80,25.27,14.93,50.28,1022.05,2049.33,2709.97,2496.59,2794.88,600.37,610.19,45.07,0000 0000 0000 0000 000000
2017-01-19 02:07:45,0.23,2.56,0.00,17.77,21.79,25.17,14.90,50.44,1021.83,2049.54,2706.74,2494.15,2791.77,599.93,609.81,45.12,0000 0000 0000 0000 000000
2017-01-19 02:12:46,0.18,2.57,0.00,17.75,21.79,25.21,14.86,50.42,1021.97,2049.49,2703.90,2491.84,2789.15,599.77,609.75,45.17,0000 0000 0000 0000 000000
2017-01-19 02:17:47,0.18,2.57,0.00,17.73,21.79,25.24,14.97,50.48,1021.85,2049.40,2701.41,2489.75,2786.80,599.93,609.78,45.22,0000 0000 0000 0000 000000
2017-01-19 02:22:49,0.21,2.59,0.00,17.68,21.78,25.29,14.94,50.51,1021.93,2049.70,2698.43,2487.69,2784.32,600.59,610.68,45.27,0000 0000 0000 0000 000000
2017-01-19 02:27:50,0.22,2.60,0.00,17.65,21.77,25.26,14.98,50.82,1021.95,2049.81,2695.47,2485.19,2781.40,599.95,610.13,45.32,0000 0000 0000 0000 000000
2017-01-19 02:32:51,0.19,2.61,0.00,17.61,21.77,25.24,15.02,50.40,1021.92,2049.71,2692.84,2483.02,2778.89,600.17,610.35,45.37,0000 0000 0000 0000 000000
2017-01-19 02:37:53,0.17,2.62,0.00,17.56,21.76,25.19,14.97,50.59,1021.75,2049.84,2690.35,2481.24,2776.74,600.49,610.76,45.42,0000 0000 0000 0000 000000
2017-01-19 02:42:54,0.20,2.63,0.00,17.52,21.74,25.26,14.90,50.61,1021.53,2049.91,2687.59,2479.10,2774.32,599.64,609.82,45.47,0000 0000 0000 0000 000000
2017-01-19 02:47:55,0.22,2.64,0.00,17.49,21.73,25.31,14.93,50.71,1021.50,2049.93,2684.44,2476.65,2771.52,599.77,610.03,45.52,0000 0000 0000 0000 000000
2017-01-19 02:52:56,0.21,2.65,0.00,17.44,21.72,25.29,14.97,50.71,1021.54,2049.95,2681.49,2474.31,2768.88,599.96,610.34,45.57,0000 0000 0000 0000 000000
2017-01-19 02:57:58,0.21,2.66,0.00,17.41,21.69,25.26,14.95,50.59,1021.51,2049.97,2678.30,2471.82,2765.94,599.98,610.45,45.62,0000 0000 0000 0000 000000
2017-01-19 03:02:59,0.21,2.67,0.00,17.37,21.68,25.26,14.92,50.24,1021.83,2049.98,2675.22,2469.52,2763.35,599.69,610.50,45.67,0000 0000 0000 0000 000000
2017-01-19 03:08:00,0.18,2.68,0.00,17.33,21.66,25.24,15.02,50.39,1021.85,2049.99,2672.48,2467.44,2760.98,600.22,611.03,45.72,0000 0000 0000 0000 000000
2017-01-19 03:13:02,0.18,2.69,0.00,17.33,21.64,25.27,15.04,50.37,1021.99,2049.99,2669.69,2465.46,2758.67,599.90,610.92,45.77,0000 0000 0000 0000 000000
2017-01-19 03:18:03,0.18,2.70,0.00,17.32,21.62,25.16,14.91,50.18,1022.00,2049.99,2666.95,2463.49,2756.41,599.86,610.73,45.83,0000 0000 0000 0000 000000
2017-01-19 03:23:05,0.18,2.71,0.00,17.31,21.60,25.14,14.96,50.23,1021.99,2050.00,2664.20,2461.56,2754.22,600.02,610.93,45.88,0000 0000 0000 0000 000000
2017-01-19 03:28:06,0.17,2.72,0.00,17.32,21.58,25.10,15.02,50.41,1021.96,2050.02,2661.58,2459.65,2752.08,600.09,611.08,45.93,0000 0000 0000 0000 000000
2017-01-19 03:33:07,0.19,2.73,0.00,17.32,21.57,25.03,14.95,50.39,1021.99,2050.06,2658.82,2457.65,2749.94,599.92,610.74,45.98,0000 0000 0000 0000 000000
2017-01-19 03:38:08,0.18,2.74,0.00,17.34,21.54,25.00,14.95,50.23,1022.08,2050.09,2656.17,2455.70,2747.60,599.55,610.55,46.03,0000 0000 0000 0000 000000
2017-01-19 03:43:10,0.19,2.75,0.00,17.34,21.53,24.94,14.97,50.28,1022.22,2050.21,2653.55,2453.81,2745.44,599.93,610.92,46.08,0000 0000 0000 0000 000000
2017-01-19 03:48:11,0.25,2.76,0.00,17.36,21.52,24.88,14.97,50.19,1022.17,2050.66,2650.91,2451.67,2743.01,599.86,610.78,46.13,0000 0000 0000 0000 000000
2017-01-19 03:53:13,0.18,2.77,0.00,17.38,21.51,24.93,14.87,50.08,1022.22,2050.90,2648.34,2449.73,2740.73,599.94,610.78,46.18,0000 0000 0000 0000 000000
2017-01-19 03:58:14,0.16,2.78,0.00,17.39,21.50,24.89,14.97,50.05,1022.05,2050.85,2645.80,2447.97,2738.65,600.20,610.93,46.23,0000 0000 0000 0000 000000
2017-01-19 04:03:15,0.16,2.78,0.00,17.40,21.49,24.86,14.89,50.17,1021.97,2050.82,2643.29,2446.13,2736.50,599.86,610.57,46.28,0000 0000 0000 0000 000000
2017-01-19 04:08:16,0.18,2.79,0.00,17.43,21.49,24.92,14.92,50.23,1021.56,2050.95,2640.86,2444.26,2734.35,599.78,610.22,46.33,0000 0000 0000 0000 000000
2017-01-19 04:13:18,0.18,2.80,0.00,17.43,21.47,24.89,14.94,50.27,1021.51,2050.96,2638.17,2442.32,2732.14,600.38,610.70,46.38,0000 0000 0000 0000 000000
2017-01-19 04:18:19,0.19,2.81,0.00,17.43,21.47,24.91,14.93,50.30,1021.50,2050.96,2635.37,2440.23,2729.74,600.01,610.41,46.43,0000 0000 0000 0000 000000
2017-01-19 04:23:20,0.21,2.82,0.00,17.44,21.47,24.94,14.95,50.20,1021.49,2050.96,2632.28,2438.02,2727.13,600.12,610.48,46.48,0000 0000 0000 0000 000000
2017-01-19 04:28:21,0.18,2.83,0.00,17.44,21.47,24.94,15.03,50.16,1021.58,2050.98,2629.62,2435.96,2724.79,600.53,610.91,46.53,0000 0000 0000 0000 000000
2017-01-19 04:33:23,0.18,2.84,0.00,17.45,21.47,24.99,14.92,50.07,1021.78,2050.98,2626.83,2433.91,2722.37,599.69,610.28,46.58,0000 0000 0000 0000 000000
2017-01-19 04:38:25,0.16,2.85,0.00,17.46,21.46,24.82,14.96,50.13,1021.95,2050.98,2624.29,2432.01,2720.17,600.09,610.69,46.63,0000 0000 0000 0000 000000
2017-01-19 04:43:26,0.18,2.86,0.00,17.47,21.46,24.96,14.94,50.16,1021.93,2050.99,2621.99,2430.30,2717.98,600.27,610.82,46.68,0000 0000 0000 0000 000000
2017-01-19 04:48:27,0.17,2.87,0.00,17.48,21.46,25.04,14.98,49.97,1021.90,2050.99,2619.33,2428.30,2715.66,600.44,610.90,46.73,0000 0000 0000 0000 000000
2017-01-19 04:53:29,0.19,2.88,0.00,17.50,21.47,25.07,14.97,50.03,1021.59,2050.97,2616.65,2426.30,2713.34,600.01,610.23,46.79,0000 0000 0000 0000 000000
2017-01-19 04:58:30,0.18,2.89,0.00,17.51,21.47,25.05,14.94,50.23,1021.50,2050.98,2614.02,2424.36,2711.08,599.93,610.20,46.84,0000 0000 0000 0000 000000
2017-01-19 05:03:31,0.18,2.90,0.00,17.50,21.47,25.09,14.93,50.14,1021.48,2050.98,2611.41,2422.43,2708.79,599.88,610.11,46.89,0000 0000 0000 0000 000000
2017-01-19 05:08:33,0.18,2.91,0.00,17.52,21.47,25.12,14.96,50.10,1021.09,2050.96,2608.69,2420.46,2706.52,600.21,610.15,46.94,0000 0000 0000 0000 000000
2017-01-19 05:13:34,0.21,2.92,0.00,17.53,21.47,25.09,14.92,50.19,1021.01,2050.97,2605.72,2418.25,2704.06,599.65,609.71,46.99,0000 0000 0000 0000 000000
2017-01-19 05:18:35,0.19,2.93,0.00,17.51,21.47,25.13,14.98,50.07,1021.01,2050.97,2602.90,2416.21,2701.65,600.26,610.15,47.04,0000 0000 0000 0000 000000
2017-01-19 05:23:36,0.19,2.94,0.00,17.50,21.47,25.12,15.05,49.98,1021.28,2050.99,2600.07,2414.22,2699.37,600.83,610.91,47.09,0000 0000 0000 0000 000000
2017-01-19 05:28:37,0.18,2.95,0.00,17.49,21.47,25.08,14.94,49.86,1021.50,2050.97,2597.47,2412.28,2697.20,600.09,610.38,47.14,0000 0000 0000 0000 000000
2017-01-19 05:33:38,0.21,2.96,0.00,17.51,21.47,25.03,14.91,49.96,1021.52,2050.98,2594.53,2410.18,2694.79,599.73,609.87,47.19,0000 0000 0000 0000 000000
2017-01-19 05:38:39,0.21,2.97,0.00,17.51,21.49,25.00,14.91,50.11,1021.36,2050.98,2591.55,2408.00,2692.17,599.94,610.07,47.24,0000 0000 0000 0000 000000
2017-01-19 05:43:41,0.21,2.98,0.00,17.50,21.49,25.07,14.98,50.17,1021.06,2050.98,2588.56,2405.62,2689.53,600.33,610.32,47.29,0000 0000 0000 0000 000000
2017-01-19 05:48:42,0.19,2.99,0.00,17.52,21.49,25.11,14.92,50.15,1020.91,2050.97,2585.67,2403.54,2687.18,600.21,610.17,47.34,0000 0000 0000 0000 000000
2017-01-19 05:53:43,0.20,3.00,0.00,17.52,21.49,25.12,14.92,50.31,1020.79,2050.98,2582.90,2401.38,2684.72,600.17,609.96,47.39,0000 0000 0000 0000 000000
2017-01-19 05:58:44,0.22,3.01,0.00,17.48,21.49,25.14,14.96,50.47,1020.64,2050.96,2579.72,2399.06,2682.07,599.95,609.64,47.44,0000 0000 0000 0000 000000
2017-01-19 06:03:46,0.23,3.02,0.00,17.48,21.49,25.08,14.94,50.23,1020.66,2050.96,2576.58,2396.67,2679.36,600.25,610.01,47.49,0000 0000 0000 0000 000000
2017-01-19 06:08:47,0.19,3.04,0.00,17.45,21.49,25.12,14.99,50.31,1020.95,2050.92,2573.62,2394.41,2676.78,599.99,610.20,47.54,0000 0000 0000 0000 000000
2017-01-19 06:13:48,0.19,3.04,0.00,17.44,21.49,25.10,14.95,50.04,1020.83,2050.90,2570.82,2392.41,2674.44,599.98,610.02,47.59,0000 0000 0000 0000 000000
2017-01-19 06:18:50,0.21,3.06,0.00,17.43,21.49,25.06,14.96,50.13,1020.78,2050.95,2567.85,2390.20,2671.95,600.27,610.23,47.64,0000 0000 0000 0000 000000
2017-01-19 06:23:51,0.20,3.06,0.00,17.40,21.49,24.95,14.88,50.33,1020.69,2050.94,2565.04,2388.07,2669.50,599.75,609.66,47.69,0000 0000 0000 0000 000000
2017-01-19 06:28:53,0.20,3.07,0.00,17.39,21.49,24.90,14.95,50.42,1020.58,2050.87,2561.99,2385.86,2667.00,600.07,610.15,47.74,0000 0000 0000 0000 000000
2017-01-19 06:33:54,0.22,3.09,0.00,17.37,21.49,24.92,14.90,50.55,1020.54,2050.89,2558.97,2383.63,2664.41,599.90,609.91,47.80,0000 0000 0000 0000 000000
2017-01-19 06:38:55,0.20,3.10,0.00,17.34,21.48,24.95,14.97,50.71,1020.63,2050.85,2556.19,2381.44,2661.92,600.27,610.26,47.85,0000 0000 0000 0000 000000
2017-01-19 06:43:56,0.29,3.11,0.00,17.31,21.47,24.99,14.91,50.52,1020.43,2050.94,2552.82,2378.65,2658.86,599.79,609.75,47.90,0000 0000 0000 0000 000000
2017-01-19 06:48:57,0.26,3.13,0.00,17.28,21.47,24.96,14.93,50.45,1020.50,2050.96,2549.35,2375.61,2655.46,600.08,610.28,47.95,0000 0000 0000 0000 000000
2017-01-19 06:53:58,0.24,3.14,0.00,17.26,21.47,24.96,14.91,50.72,1020.45,2050.95,2546.03,2372.95,2652.42,599.63,609.85,48.00,0000 0000 0000 0000 000000
2017-01-19 06:58:59,0.26,3.15,0.00,17.24,21.45,24.98,14.92,50.38,1020.71,2050.96,2542.90,2370.04,2649.22,600.17,610.49,48.05,0000 0000 0000 0000 000000
2017-01-19 07:04:01,0.19,3.16,0.00,17.22,21.44,24.98,14.92,50.43,1020.80,2050.97,2540.25,2368.04,2646.91,599.79,610.14,48.10,0000 0000 0000 0000 000000
2017-01-19 07:09:02,0.17,3.17,0.00,17.19,21.43,24.95,15.02,50.41,1020.67,2050.98,2537.62,2366.37,2644.74,600.34,610.79,48.15,0000 0000 0000 0000 000000
2017-01-19 07:14:03,0.19,3.18,0.00,17.17,21.42,24.91,14.98,50.74,1020.84,2050.98,2534.88,2364.48,2642.57,600.21,610.83,48.20,0000 0000 0000 0000 000000
2017-01-19 07:19:04,0.19,3.19,0.00,17.15,21.41,24.93,14.97,50.29,1020.98,2050.98,2532.33,2362.46,2640.33,599.91,610.52,48.25,0000 0000 0000 0000 000000
2017-01-19 07:24:05,0.19,3.20,0.00,17.15,21.39,24.91,14.99,50.30,1021.07,2050.99,2529.63,2360.57,2638.07,600.29,611.06,48.30,0000 0000 0000 0000 000000
2017-01-19 07:29:07,0.19,3.21,0.00,17.14,21.39,24.89,14.95,50.48,1020.95,2050.99,2526.94,2358.59,2635.96,600.07,610.69,48.35,0000 0000 0000 0000 000000
2017-01-19 07:34:08,0.19,3.22,0.00,17.15,21.37,24.89,15.01,50.63,1020.87,2050.99,2524.12,2356.53,2633.63,600.17,610.71,48.40,0000 0000 0000 0000 000000
2017-01-19 07:39:10,0.18,3.23,0.00,17.15,21.37,24.85,14.93,50.67,1020.50,2050.99,2521.58,2354.69,2631.48,599.88,610.25,48.45,0000 0000 0000 0000 000000
2017-01-19 07:44:11,0.20,3.24,0.00,17.12,21.35,24.79,14.85,50.83,1020.10,2050.99,2518.98,2352.74,2629.23,599.87,609.94,48.50,0000 0000 0000 0000 000000
2017-01-19 07:49:12,0.21,3.25,0.00,17.11,21.34,24.82,14.93,51.04,1019.82,2050.99,2516.14,2350.50,2626.74,600.07,610.11,48.55,0000 0000 0000 0000 000000
2017-01-19 07:54:14,0.20,3.26,0.00,17.09,21.33,24.75,14.97,51.11,1019.70,2051.01,2513.48,2348.42,2624.34,599.83,610.01,48.60,0000 0000 0000 0000 000000
2017-01-19 07:59:15,0.23,3.27,0.00,17.07,21.32,24.72,15.04,51.31,1019.91,2051.01,2510.49,2346.15,2621.94,600.33,610.53,48.65,0000 0000 0000 0000 000000
2017-01-19 08:04:16,0.21,3.28,0.00,17.03,21.30,24.74,14.97,50.80,1020.06,2051.01,2507.68,2343.89,2619.45,600.37,610.67,48.71,0000 0000 0000 0000 000000
2017-01-19 08:09:17,0.16,3.29,0.00,17.00,21.29,24.78,15.00,50.52,1020.50,2051.02,2505.39,2342.11,2617.31,600.17,610.94,48.76,0000 0000 0000 0000 000000
2017-01-19 08:14:18,0.19,3.30,0.00,16.98,21.27,24.79,14.95,50.57,1020.62,2051.06,2502.77,2340.36,2615.27,600.19,610.81,48.81,0000 0000 0000 0000 000000
2017-01-19 08:19:19,0.19,3.31,0.00,16.97,21.25,24.74,15.01,50.38,1020.97,2051.08,2500.19,2338.51,2613.18,600.23,611.26,48.86,0000 0000 0000 0000 000000
2017-01-19 08:24:21,0.18,3.32,0.00,16.96,21.24,24.76,14.93,50.13,1020.98,2051.18,2497.70,2336.83,2611.30,600.02,611.11,48.91,0000 0000 0000 0000 000000
2017-01-19 08:29:22,0.23,3.33,0.00,16.97,21.22,24.75,14.93,50.27,1020.92,2051.60,2495.33,2335.21,2609.43,599.79,610.81,48.96,0000 0000 0000 0000 000000
2017-01-19 08:34:23,0.18,3.34,0.00,16.99,21.21,24.70,14.96,50.17,1021.01,2051.93,2493.08,2333.52,2607.47,600.00,611.00,49.01,0000 0000 0000 0000 000000
2017-01-19 08:39:24,0.16,3.35,0.00,17.00,21.19,24.70,14.93,50.14,1021.00,2051.96,2491.05,2331.98,2605.64,599.82,610.82,49.06,0000 0000 0000 0000 000000
2017-01-19 08:44:25,0.18,3.36,0.00,17.00,21.19,24.62,14.94,50.17,1021.01,2051.97,2488.51,2330.21,2603.67,600.10,611.00,49.11,0000 0000 0000 0000 000000
2017-01-19 08:49:27,0.17,3.37,0.00,17.04,21.18,24.61,14.92,50.14,1020.99,2051.98,2486.21,2328.53,2601.65,599.85,610.63,49.16,0000 0000 0000 0000 000000
2017-01-19 08:54:28,0.17,3.38,0.00,17.05,21.17,24.60,14.89,50.21,1020.58,2051.97,2483.87,2326.76,2599.61,599.83,610.48,49.21,0000 0000 0000 0000 000000
2017-01-19 08:59:29,0.17,3.39,0.00,17.08,21.17,24.55,14.88,50.20,1020.24,2051.97,2481.42,2325.09,2597.60,599.92,610.29,49.26,0000 0000 0000 0000 000000
2017-01-19 09:04:31,0.19,3.40,0.00,17.10,21.17,24.56,14.91,50.39,1019.83,2051.97,2478.84,2323.28,2595.51,599.77,609.89,49.31,0000 0000 0000 0000 000000
2017-01-19 09:09:32,0.21,3.41,0.00,17.09,21.17,24.67,14.89,50.63,1019.53,2051.99,2475.98,2321.16,2593.05,599.87,609.67,49.36,0000 0000 0000 0000 000000
2017-01-19 09:14:34,0.21,3.42,0.00,17.09,21.16,24.70,14.98,50.71,1019.14,2051.99,2473.39,2319.20,2590.69,600.24,609.98,49.41,0000 0000 0000 0000 000000
2017-01-19 09:19:35,0.23,3.43,0.00,17.08,21.15,24.73,14.90,50.97,1019.07,2051.98,2470.33,2316.96,2588.10,599.87,609.54,49.46,0000 0000 0000 0000 000000
2017-01-19 09:24:37,0.21,3.44,0.00,17.05,21.14,24.75,14.96,50.96,1019.06,2051.98,2467.50,2314.81,2585.51,600.21,609.91,49.51,0000 0000 0000 0000 000000
2017-01-19 09:29:38,0.21,3.45,0.00,17.03,21.14,24.80,14.94,50.79,1019.07,2051.99,2464.81,2312.72,2583.11,600.09,609.65,49.56,0000 0000 0000 0000 000000
2017-01-19 09:34:39,0.22,3.46,0.00,17.00,21.14,24.76,14.94,50.95,1019.07,2051.99,2461.92,2310.62,2580.65,600.05,609.87,49.61,0000 0000 0000 0000 000000
2017-01-19 09:39:41,0.21,3.47,0.00,16.97,21.14,24.76,14.95,50.79,1019.05,2051.99,2459.00,2308.39,2578.12,599.70,609.67,49.67,0000 0000 0000 0000 000000
2017-01-19 09:44:42,0.21,3.48,0.00,16.94,21.14,24.74,14.97,51.23,1018.88,2051.99,2456.06,2306.36,2575.89,600.23,610.16,49.72,0000 0000 0000 0000 000000
2017-01-19 09:49:44,0.23,3.50,0.00,16.91,21.14,24.74,14.97,51.01,1018.96,2051.99,2453.11,2304.20,2573.29,600.23,610.17,49.77,0000 0000 0000 0000 000000
2017-01-19 09:54:46,0.20,3.51,0.00,16.88,21.12,24.65,14.92,50.98,1019.05,2051.99,2450.35,2302.15,2570.83,599.94,609.94,49.82,0000 0000 0000 0000 000000
2017-01-19 09:59:47,0.23,3.52,0.00,16.84,21.12,24.70,14.99,51.26,1018.91,2051.99,2447.59,2300.00,2568.31,600.11,610.11,49.87,0000 0000 0000 0000 000000
2017-01-19 10:04:48,0.21,3.53,0.00,16.81,21.12,24.60,14.94,51.02,1019.03,2051.99,2444.79,2297.66,2565.64,599.84,610.11,49.92,0000 0000 0000 0000 000000
2017-01-19 10:09:49,0.19,3.54,0.00,16.78,21.10,24.63,14.93,50.99,1019.03,2051.99,2442.24,2295.75,2563.39,599.71,610.00,49.97,0000 0000 0000 0000 000000
2017-01-19 10:14:50,0.21,3.55,0.00,16.74,21.09,24.66,14.95,51.08,1018.95,2051.99,2439.51,2293.73,2561.16,600.14,610.43,50.02,0000 0000 0000 0000 000000
2017-01-19 10:19:51,0.20,3.56,0.00,16.71,21.07,24.57,15.05,51.28,1018.85,2051.99,2436.77,2291.72,2558.87,600.19,610.54,50.07,0000 0000 0000 0000 000000
2017-01-19 10:24:53,0.22,3.57,0.00,16.67,21.07,24.58,15.02,51.38,1018.95,2052.00,2434.13,2289.51,2556.48,599.93,610.36,50.12,0000 0000 0000 0000 000000
2017-01-19 10:29:54,0.20,3.58,0.00,16.64,21.04,24.59,15.06,51.29,1019.06,2052.01,2431.46,2287.55,2554.13,600.25,610.76,50.17,0000 0000 0000 0000 000000
2017-01-19 10:34:55,0.20,3.59,0.00,16.60,21.03,24.57,14.96,51.17,1019.06,2052.02,2428.80,2285.60,2551.93,599.83,610.49,50.22,0000 0000 0000 0000 000000
2017-01-19 10:39:56,0.22,3.61,0.00,16.57,21.02,24.57,14.97,51.42,1019.03,2052.04,2426.11,2283.52,2549.46,599.50,610.20,50.27,0000 0000 0000 0000 000000
2017-01-19 10:44:57,0.22,3.62,0.00,16.53,20.99,24.58,14.95,51.50,1018.71,2052.12,2423.36,2281.55,2547.24,599.93,610.60,50.32,0000 0000 0000 0000 000000
2017-01-19 10:49:58,0.25,3.63,0.00,16.50,20.98,24.52,15.08,51.22,1018.69,2052.29,2420.37,2279.34,2544.71,600.15,610.78,50.37,0000 0000 0000 0000 000000
2017-01-19 10:55:00,0.20,3.64,0.00,16.47,20.96,24.51,15.00,51.36,1018.63,2052.39,2417.73,2277.43,2542.35,600.30,610.98,50.42,0000 0000 0000 0000 000000
2017-01-19 11:00:01,0.24,3.65,0.00,16.43,20.93,24.51,15.03,51.47,1018.88,2052.78,2415.43,2275.72,2540.40,599.87,610.79,50.47,0000 0000 0000 0000 000000
2017-01-19 11:05:02,0.18,3.66,0.00,16.40,20.92,24.51,14.97,51.27,1019.04,2052.93,2413.08,2274.05,2538.39,599.66,610.65,50.52,0000 0000 0000 0000 000000
2017-01-19 11:10:04,0.19,3.67,0.00,16.36,20.89,24.48,14.96,51.10,1018.97,2052.97,2410.58,2272.34,2536.36,599.93,611.03,50.58,0000 0000 0000 0000 000000
2017-01-19 11:15:05,0.20,3.68,0.00,16.32,20.87,24.48,15.00,51.17,1018.83,2052.99,2408.03,2270.50,2534.27,600.02,611.13,50.63,0000 0000 0000 0000 000000
2017-01-19 11:20:06,0.20,3.69,0.00,16.29,20.84,24.46,15.06,51.56,1018.65,2052.99,2405.37,2268.61,2532.14,600.34,611.41,50.68,0000 0000 0000 0000 000000
2017-01-19 11:25:07,0.19,3.70,0.00,16.27,20.82,24.41,15.02,51.60,1018.67,2052.99,2402.90,2266.80,2530.11,599.76,610.87,50.73,0000 0000 0000 0000 000000
2017-01-19 11:30:08,0.19,3.71,0.00,16.26,20.79,24.36,14.98,51.63,1018.53,2052.99,2400.43,2265.08,2528.08,600.26,611.45,50.78,0000 0000 0000 0000 000000
2017-01-19 11:35:09,0.26,3.72,0.00,16.22,20.77,24.37,15.07,51.47,1018.59,2052.99,2397.15,2262.85,2525.54,600.01,611.22,50.83,0000 0000 0000 0000 000000
2017-01-19 11:40:10,0.20,3.73,0.00,16.19,20.74,24.34,15.03,51.18,1018.85,2053.02,2394.32,2260.76,2523.16,599.94,611.35,50.88,0000 0000 0000 0000 000000
2017-01-19 11:45:12,0.26,3.75,0.00,16.19,20.72,24.34,15.04,51.17,1018.86,2053.14,2391.04,2258.68,2520.68,600.25,611.75,50.93,0000 0000 0000 0000 000000
2017-01-19 11:50:13,0.22,3.76,0.00,16.18,20.69,24.33,15.06,50.82,1019.11,2053.29,2388.32,2256.70,2518.33,600.21,611.76,50.98,0000 0000 0000 0000 000000
2017-01-19 11:55:14,0.24,3.77,0.00,16.18,20.67,24.27,15.00,50.97,1019.13,2053.53,2385.57,2254.72,2516.09,599.63,611.23,51.03,0000 0000 0000 0000 000000
2017-01-19 12:00:15,0.26,3.78,0.00,16.17,20.64,24.22,15.01,50.88,1019.06,2053.90,2382.66,2252.64,2513.70,599.90,611.41,51.08,0000 0000 0000 0000 000000
2017-01-19 12:05:17,0.22,3.80,0.00,16.17,20.62,24.19,15.01,50.92,1019.10,2053.95,2379.76,2250.54,2511.35,600.18,611.69,51.13,0000 0000 0000 0000 000000
2017-01-19 12:10:18,0.23,3.81,0.00,16.17,20.59,24.17,15.00,50.90,1019.06,2053.98,2376.93,2248.38,2508.98,599.74,611.24,51.18,0000 0000 0000 0000 000000
2017-01-19 12:15:19,0.21,3.82,0.00,16.17,20.57,24.14,14.94,51.13,1018.93,2053.99,2374.14,2246.42,2506.59,599.71,611.20,51.23,0000 0000 0000 0000 000000
2017-01-19 12:20:20,0.22,3.83,0.00,16.16,20.55,24.06,14.95,51.10,1018.79,2053.99,2371.30,2244.41,2504.32,599.84,611.28,51.28,0000 0000 0000 0000 000000
2017-01-19 12:25:22,0.27,3.84,0.00,16.16,20.53,24.09,15.04,51.23,1018.64,2054.00,2368.05,2241.98,2501.52,600.44,611.85,51.33,0000 0000 0000 0000 000000
2017-01-19 12:30:23,0.25,3.86,0.00,16.15,20.52,24.04,15.04,51.24,1018.53,2054.01,2364.85,2239.67,2498.77,600.18,611.62,51.38,0000 0000 0000 0000 000000
2017-01-19 12:35:24,0.25,3.87,0.00,16.14,20.49,24.02,14.93,51.13,1018.57,2054.02,2361.59,2237.34,2495.98,599.53,610.86,51.43,0000 0000 0000 0000 000000
2017-01-19 12:40:26,0.23,3.88,0.00,16.14,20.48,23.98,15.02,51.27,1018.54,2054.04,2358.55,2235.24,2493.63,600.04,611.42,51.48,0000 0000 0000 0000 000000
2017-01-19 12:45:27,0.26,3.89,0.00,16.13,20.47,24.02,14.99,51.24,1018.40,2054.10,2355.39,2233.01,2491.08,600.08,611.38,51.53,0000 0000 0000 0000 000000
2017-01-19 12:50:28,0.26,3.91,0.00,16.14,20.44,24.00,15.05,51.32,1018.20,2054.18,2352.12,2230.75,2488.48,600.13,611.38,51.59,0000 0000 0000 0000 000000
2017-01-19 12:55:29,0.29,3.92,0.00,16.13,20.43,23.98,15.00,51.15,1018.30,2054.39,2348.80,2228.39,2485.80,600.11,611.31,51.64,0000 0000 0000 0000 000000